[[{"header":{"parameterUnit":"m.s-1","parameterCategory":1,"la1":30.2991,"la2":30.254,"lo1":-89.0895,"lo2":-89.0444,"dy":0.0017,"dx":0.0017,"nx":28,"ny":28,"refTime":"2024-09-04T03:00:00:Z","depth":0,"parameterNumber":2,"parameterNumberName":"U-component_of_WINDS"},"data":[0,0,0,0,0,0,0,0,0,0,0,0,0,0,0,0,0,0,0,0,0,0,0,0,0,0,0,0,0,0,0,0,0,0,0,0,0,0,0,0,0,0,0,0,0,0,0,0,0,0,0,0,0,0,0,0,0,0,-6.8363,-6.8364,0,-6.8411,-6.8411,-6.8412,-6.8238,-6.8233,-6.8228,-6.8223,-6.8271,-6.8277,-6.8283,0,0,0,0,0,0,0,0,0,0,0,0,0,-6.8121,-6.8126,-6.8363,-6.8364,-6.8364,-6.8411,-6.8411,-6.8412,-6.8239,-6.8233,-6.8227,-6.8221,-6.8269,-6.8276,-6.8283,0,0,0,0,0,0,0,0,0,0,0,0,0,-6.8203,-6.8128,-6.8363,-6.8284,-6.8277,-6.8411,-6.8411,-6.8412,-6.8241,-6.8233,-6.8225,-6.8218,-6.8266,-6.8275,-6.8284,-6.8496,0,0,-6.8312,-6.8316,0,0,0,0,0,0,0,0,-6.8199,-6.8212,-6.8295,-6.8289,-6.8282,-6.8311,-6.8343,-6.844,-6.8243,-6.8255,-6.8223,-6.8214,-6.829,-6.8297,-6.8323,-6.8498,-6.85,-6.8313,-6.8318,-6.8322,-6.8325,0,0,0,0,0,0,0,-6.8193,-6.8209,-6.8382,-6.8296,-6.8289,-6.8245,-6.8248,-6.8361,-6.8315,-6.8253,-6.824,-6.8249,-6.8285,-6.8315,-6.8323,-6.8501,-6.8313,-6.8321,-6.8326,-6.833,-6.8852,-6.886,0,0,0,0,0,0,-6.8198,-6.8206,-6.838,-6.8383,-6.8221,-6.8256,-6.8259,-6.8309,-6.8314,-6.8307,-6.8255,-6.824,-6.8303,-6.8312,-6.8324,-6.8571,-6.8322,-6.8331,-6.8336,-6.8843,-6.8854,-6.8863,0,0,0,0,0,0,-6.8194,-6.8215,-6.8378,-6.8291,-6.8308,-6.8268,-6.8326,-6.8314,-6.8343,-6.8315,-6.8306,-6.8293,-6.8297,-6.8311,-6.8454,-6.857,-6.8335,-6.8343,-6.8834,-6.8847,-6.8858,-6.9069,0,0,0,0,0,0,-6.8187,-6.8215,-6.8295,-6.8294,-6.8314,-6.8509,-6.8333,-6.8321,-6.836,-6.8341,-6.8349,-6.8343,-6.8292,-6.8442,-6.8464,-6.8579,-6.835,-6.8823,-6.8839,-6.8854,-6.9051,-6.9087,-6.9118,0,0,0,0,0,-6.8179,-6.8352,-6.83,-6.8322,-6.8414,-6.8516,-6.8527,-6.8466,-6.837,-6.845,-6.8432,-6.8342,-6.8555,-6.8458,-6.8481,-6.8601,-6.8815,-6.8835,-6.8853,-6.9036,-6.908,-6.9117,0,0,0,0,0,0,-6.8367,-6.835,-6.8292,-6.847,-6.8496,-6.8487,-6.8586,-6.8514,-6.8567,-6.8547,-6.8468,-6.8472,-6.8629,-6.8629,-6.8522,-6.8806,-6.8668,-6.8693,-6.88,-6.8841,-6.8874,-6.887,-6.8358,0,0,0,0,0,-6.8429,-6.8515,-6.8495,-6.8654,-6.867,-6.8627,-6.8669,-6.862,-6.8643,-6.8653,-6.8645,-6.8671,-6.8743,-6.8792,-6.8857,-6.9051,-6.905,-6.9145,-6.9178,-6.9205,-6.9227,-6.9329,-6.9371,-6.8925,-6.8924,-6.8924,0,0,-6.8558,-6.856,-6.8618,-6.8692,-6.8706,-6.8796,-6.8637,-6.8738,-6.8804,-6.8668,-6.8803,-6.8799,-6.8822,-6.8992,-6.9066,-6.8996,-6.935,-6.9229,-6.9251,-6.9258,-6.9353,-6.9395,-6.9433,-6.8937,-6.8935,-6.8933,0,0,-6.8839,-6.8849,-6.8982,-6.9,-6.9024,-6.8994,-6.9026,-6.9028,-6.902,-6.9155,-6.9055,-6.9132,-6.9258,-6.9279,-6.9306,-6.9596,-6.9515,-6.9619,-6.9792,-6.9893,-6.9928,-6.9959,-7.0062,-7.01,-6.9641,-6.9642,-6.9642,0,-6.8996,-6.9127,-6.906,-6.9169,-6.9204,-6.9086,-6.922,-6.924,-6.9284,-6.9311,-6.9233,-6.9389,-6.9396,-6.9569,-6.964,-6.9666,-6.97,-6.9617,-6.9929,-6.9959,-6.9986,-7.0084,-7.0123,-6.9654,-6.9653,-6.9652,-6.965,0,-6.9319,-6.9412,-6.9517,-6.9563,-6.961,-6.9731,-6.9681,-6.9737,-6.9684,-6.9663,-6.9801,-6.9806,-6.987,-6.9908,-6.9857,-7.0074,-7.003,-6.9942,-6.9802,-7.0043,-7.0132,-7.0169,-6.9672,-6.9668,-6.9664,-6.9661,0,0,-6.9718,-6.9726,-6.9766,-6.9785,-6.9803,-6.9874,-6.999,-7.0053,-7.0102,-7.0136,-7.0231,-7.0341,-7.026,-7.0291,-7.0241,-7.033,-7.0559,-7.023,-7.023,-7.0291,-7.0798,-7.0864,-7.0908,-7.0506,-7.0513,-7.0519,-7.0796,0,-6.9993,-7.0192,-7.0135,-7.0333,-7.0418,-7.0308,-7.0409,-7.0431,-7.0414,-7.0483,-7.0464,-7.0543,-7.043,-7.0448,-7.0531,-7.0514,-7.066,-7.0493,-7.0593,-7.0597,-7.0589,-7.0955,-7.1024,-7.1286,-7.083,-7.0836,-7.0841,0,-7.034,-7.039,-7.0597,-7.0602,-7.0635,-7.0727,-7.078,-7.0848,-7.0871,-7.0852,-7.0888,-7.0821,-7.0934,-7.0795,-7.0949,-7.0838,-7.0875,-7.0873,-7.0882,-7.0887,-7.0733,-7.097,-7.1367,-7.1407,-7.0896,-7.0891,-7.0887,0,-7.061,-7.0728,-7.0867,-7.0887,-7.0896,-7.0963,-7.097,-7.0985,-7.1027,-7.1074,-7.11,-7.116,-7.1192,-7.1239,-7.119,-7.1093,-7.1352,-7.1209,-7.1339,-7.1341,-7.1397,-7.1394,-7.1806,-7.1424,-7.1424,-7.1423,-7.1422,0,-7.0922,-7.1054,-7.0988,-7.1074,-7.1218,-7.1151,-7.1295,-7.1289,-7.1304,-7.1386,-7.1295,-7.1374,-7.1304,-7.1376,-7.1338,-7.1472,-7.1487,-7.1475,-7.1463,-7.1483,-7.1485,-7.1505,-7.1486,-7.1433,-7.1431,-7.1429,-7.1427,0,-7.1247,-7.1209,-7.1353,-7.135,-7.1353,-7.1459,-7.1456,-7.1534,-7.1512,-7.1617,-7.1638,-7.1602,-7.1683,-7.1638,-7.1721,-7.1696,-7.1869,-7.1833,-7.1862,-7.1852,-7.1984,-7.1972,-7.2423,-7.2478,-7.2062,-7.2066,-7.207,0,-7.1448,-7.1547,-7.1555,-7.1604,-7.1617,-7.1697,-7.1739,-7.1678,-7.1726,-7.176,-7.1835,-7.1908,-7.1963,-7.2097,-7.2078,-7.2141,-7.2105,-7.2259,-7.2114,-7.2131,-7.2107,-7.2101,-7.211,-7.2288,-7.2293,-7.2297,-7.23,0,-7.181,-7.1786,-7.1851,-7.1911,-7.1964,-7.2008,-7.2043,-7.2089,-7.2028,-7.2086,-7.2168,-7.2211,-7.2297,-7.237,-7.2425,-7.243,-7.2356,-7.2346,-7.2379,-7.24,-7.2412,-7.2406,-7.194,-7.2336,-7.2332,-7.2329,-7.2328,-7.2326,-7.2078,-7.2161,-7.218,-7.2255,-7.2276,-7.2312,-7.2386,-7.2373,-7.244,-7.2505,-7.2465,-7.2561,-7.2581,-7.2647,-7.2663,-7.2737,-7.2675,-7.2724,-7.2736,-7.2748,-7.2766,-7.2402,-7.2747,-7.2745,-7.2744,-7.2744,-7.2743,0,-7.2434,-7.2441,-7.2512,-7.2565,-7.2625,-7.255,-7.2586,-7.2641,-7.2727,-7.2753,-7.2809,-7.2904,-7.2975,-7.2962,-7.3027,-7.3089,-7.3056,-7.3108,-7.3102,-7.3104,-7.2818,-7.2782,-7.3133,-7.3133,-7.3133,-7.3133,-7.3133,-7.3132,-7.2627,-7.2762,-7.2741,-7.2886,-7.2891,-7.2986,-7.3013,-7.3045,-7.3065,-7.3175,-7.3234,-7.3225,-7.3236,-7.33,-7.3362,-7.3356,-7.3384,-7.3448,-7.343,-7.3163,-7.3124,-7.3087,-7.3053,-7.3455,-7.3456,-7.371,-7.3712,-7.3714]},{"header":{"parameterUnit":"m.s-1","parameterCategory":1,"la1":30.2991,"la2":30.254,"lo1":-89.0895,"lo2":-89.0444,"dy":0.0017,"dx":0.0017,"nx":28,"ny":28,"refTime":"2024-09-04T03:00:00:Z","depth":0,"parameterNumber":3,"parameterNumberName":"V-component_of_WINDS"},"data":[0,0,0,0,0,0,0,0,0,0,0,0,0,0,0,0,0,0,0,0,0,0,0,0,0,0,0,0,0,0,0,0,0,0,0,0,0,0,0,0,0,0,0,0,0,0,0,0,0,0,0,0,0,0,0,0,0,0,-1.9247,-1.9246,0,-1.9195,-1.9195,-1.9194,-1.9116,-1.9115,-1.9113,-1.9112,-1.9062,-1.9062,-1.9062,0,0,0,0,0,0,0,0,0,0,0,0,0,-1.9278,-1.9278,-1.9247,-1.9246,-1.9245,-1.9196,-1.9195,-1.9194,-1.9116,-1.9115,-1.9113,-1.9111,-1.9062,-1.9062,-1.9062,0,0,0,0,0,0,0,0,0,0,0,0,0,-1.925,-1.9278,-1.9247,-1.92,-1.9196,-1.9196,-1.9195,-1.9194,-1.9117,-1.9115,-1.9113,-1.9111,-1.9062,-1.9062,-1.9062,-1.9104,0,0,-1.9062,-1.9062,0,0,0,0,0,0,0,0,-1.9252,-1.9249,-1.9208,-1.9204,-1.9198,-1.916,-1.9188,-1.9164,-1.9117,-1.9147,-1.9112,-1.911,-1.9097,-1.9094,-1.9089,-1.9102,-1.91,-1.9062,-1.9062,-1.9062,-1.9062,0,0,0,0,0,0,0,-1.9254,-1.925,-1.9226,-1.9207,-1.9202,-1.9183,-1.9176,-1.9183,-1.9134,-1.9144,-1.9138,-1.9133,-1.9094,-1.9089,-1.9087,-1.9099,-1.9062,-1.9062,-1.9062,-1.9062,-1.9143,-1.9145,0,0,0,0,0,0,-1.9262,-1.9253,-1.9228,-1.9225,-1.922,-1.9184,-1.9177,-1.9174,-1.9134,-1.9126,-1.9135,-1.913,-1.909,-1.9087,-1.9085,-1.913,-1.9062,-1.9062,-1.9062,-1.914,-1.9143,-1.9145,0,0,0,0,0,0,-1.9263,-1.9261,-1.923,-1.9237,-1.9232,-1.9186,-1.9184,-1.9175,-1.917,-1.9127,-1.9118,-1.9139,-1.9088,-1.9085,-1.9099,-1.9128,-1.9062,-1.9062,-1.9138,-1.9141,-1.9144,-1.9222,0,0,0,0,0,0,-1.9264,-1.9261,-1.9277,-1.9238,-1.9232,-1.9245,-1.9185,-1.9175,-1.917,-1.9162,-1.9128,-1.9121,-1.9086,-1.91,-1.9099,-1.9126,-1.9062,-1.9135,-1.9139,-1.9143,-1.9217,-1.9228,-1.9237,0,0,0,0,0,-1.9266,-1.9301,-1.9278,-1.9275,-1.9249,-1.9247,-1.9243,-1.9202,-1.9172,-1.9187,-1.916,-1.9122,-1.9125,-1.9102,-1.9101,-1.9128,-1.9133,-1.9138,-1.9143,-1.9213,-1.9226,-1.9237,0,0,0,0,0,0,-1.9345,-1.9295,-1.9269,-1.9293,-1.9275,-1.9234,-1.9251,-1.9218,-1.9208,-1.9202,-1.9152,-1.9145,-1.9166,-1.9148,-1.9124,-1.9166,-1.9123,-1.9128,-1.9177,-1.9189,-1.9199,-1.9202,-1.9062,0,0,0,0,0,-1.9366,-1.9367,-1.9324,-1.9349,-1.9341,-1.9298,-1.9295,-1.9265,-1.9245,-1.9237,-1.921,-1.9193,-1.9189,-1.9188,-1.9183,-1.9214,-1.9206,-1.9232,-1.9243,-1.9251,-1.9256,-1.927,-1.9282,-1.9161,-1.9161,-1.9161,0,0,-1.9408,-1.9381,-1.9385,-1.9364,-1.9347,-1.935,-1.9292,-1.9298,-1.93,-1.9238,-1.9249,-1.923,-1.9206,-1.9229,-1.9238,-1.9216,-1.9287,-1.9257,-1.9264,-1.9264,-1.9277,-1.9288,-1.9298,-1.9165,-1.9164,-1.9163,0,0,-1.9485,-1.9465,-1.9484,-1.9467,-1.9441,-1.9411,-1.9416,-1.938,-1.9364,-1.9375,-1.9328,-1.933,-1.9326,-1.9311,-1.9303,-1.9374,-1.9339,-1.9374,-1.9426,-1.9441,-1.9451,-1.9459,-1.9484,-1.9494,-1.9379,-1.9379,-1.9379,0,-1.9541,-1.9543,-1.9498,-1.9506,-1.9498,-1.9442,-1.946,-1.9446,-1.942,-1.9416,-1.9391,-1.9384,-1.9364,-1.9382,-1.94,-1.9395,-1.9399,-1.9377,-1.9453,-1.9461,-1.9468,-1.9491,-1.9501,-1.9383,-1.9383,-1.9383,-1.9382,0,-1.9612,-1.9615,-1.9633,-1.9608,-1.9602,-1.9616,-1.9573,-1.9573,-1.9543,-1.9517,-1.9528,-1.9503,-1.9491,-1.9493,-1.9465,-1.9507,-1.9494,-1.9462,-1.9418,-1.9484,-1.9505,-1.9514,-1.939,-1.9388,-1.9387,-1.9386,0,0,-1.9739,-1.9688,-1.9695,-1.9683,-1.9649,-1.965,-1.9662,-1.9649,-1.965,-1.9634,-1.9641,-1.9639,-1.9608,-1.9599,-1.9569,-1.9582,-1.9639,-1.9548,-1.9546,-1.9565,-1.9684,-1.9708,-1.9719,-1.9616,-1.9618,-1.9619,-1.9686,0,-1.9809,-1.9824,-1.9784,-1.9809,-1.981,-1.9756,-1.9766,-1.9747,-1.9723,-1.9721,-1.9694,-1.9693,-1.9653,-1.9647,-1.9658,-1.963,-1.9663,-1.9625,-1.9623,-1.9624,-1.963,-1.973,-1.9756,-1.9821,-1.9694,-1.9695,-1.9696,0,-1.9893,-1.9881,-1.9906,-1.987,-1.9869,-1.9878,-1.9863,-1.9862,-1.9839,-1.9821,-1.981,-1.9774,-1.9783,-1.9741,-1.9752,-1.9727,-1.9724,-1.9711,-1.9712,-1.971,-1.9664,-1.9731,-1.984,-1.985,-1.9709,-1.9708,-1.9707,0,-1.9982,-1.9971,-1.9985,-1.9976,-1.9935,-1.9943,-1.9926,-1.9901,-1.9896,-1.9883,-1.9879,-1.9868,-1.9862,-1.9854,-1.9816,-1.9789,-1.9832,-1.9787,-1.9817,-1.9818,-1.9828,-1.9828,-1.9938,-1.9827,-1.9827,-1.9827,-1.9827,0,-2.0065,-2.0082,-2.0024,-2.0032,-2.005,-2.0003,-2.0023,-2.0001,-1.9979,-1.9982,-1.9936,-1.994,-1.989,-1.9889,-1.9859,-1.9873,-1.987,-1.9856,-1.9848,-1.986,-1.9861,-1.9857,-1.9851,-1.9829,-1.9829,-1.9828,-1.9828,0,-2.0166,-2.0128,-2.0139,-2.0099,-2.009,-2.0105,-2.007,-2.0077,-2.005,-2.0054,-2.0053,-2.001,-2.0007,-1.9968,-1.9956,-1.9936,-1.9961,-1.9945,-1.9968,-1.9963,-1.9995,-1.9992,-2.0106,-2.0118,-2.0,-2.0001,-2.0002,0,-2.0221,-2.0233,-2.0194,-2.0193,-2.0178,-2.0177,-2.0171,-2.0126,-2.0122,-2.0096,-2.0106,-2.0098,-2.0089,-2.0086,-2.0054,-2.0045,-2.0028,-2.0068,-2.0026,-2.0037,-2.0027,-2.0027,-2.0028,-2.0077,-2.0078,-2.008,-2.0081,0,-2.0322,-2.0302,-2.0295,-2.0282,-2.0276,-2.0264,-2.0248,-2.025,-2.02,-2.0198,-2.0193,-2.0187,-2.0174,-2.0167,-2.0152,-2.0135,-2.01,-2.0094,-2.01,-2.0112,-2.0125,-2.0118,-1.9992,-2.0092,-2.009,-2.009,-2.0089,-2.0089,-2.0401,-2.0409,-2.0383,-2.0377,-2.036,-2.0347,-2.035,-2.0323,-2.0318,-2.0304,-2.0278,-2.0277,-2.0253,-2.0229,-2.0216,-2.0214,-2.0194,-2.0203,-2.0205,-2.0208,-2.0214,-2.0126,-2.0212,-2.0211,-2.0211,-2.0211,-2.021,0,-2.0499,-2.048,-2.0474,-2.0454,-2.0449,-2.0416,-2.0397,-2.0395,-2.0395,-2.0376,-2.0368,-2.0362,-2.0355,-2.0323,-2.0312,-2.0317,-2.0301,-2.0316,-2.0315,-2.0312,-2.0234,-2.0229,-2.0329,-2.0329,-2.0329,-2.0329,-2.0329,-2.0329,-2.0549,-2.0561,-2.0538,-2.0541,-2.0521,-2.0519,-2.0511,-2.0499,-2.0483,-2.0478,-2.0472,-2.0451,-2.0426,-2.0414,-2.0406,-2.0396,-2.0395,-2.0415,-2.0401,-2.0329,-2.0317,-2.0306,-2.0301,-2.0415,-2.0415,-2.0478,-2.0479,-2.0479]}]]